Weather History for MMCZ - October, 2012

Change the Weather History Date:

Thursday, October 4, 2012

  Actual Average Record
Temperature  
Mean Temperature 74 °F -  
Max Temperature 78 °F 87 °F 91 °F (1998)
Min Temperature 69 °F 76 °F 68 °F (2001)
Cooling Degree Days 8    
Growing Degree Days 24 (Base 50)    
Moisture  
Dew Point 72 °F    
Average Humidity 96    
Maximum Humidity 100    
Minimum Humidity 78    
Precipitation  
Precipitation 4.00 in - - ()
Sea Level Pressure  
Sea Level Pressure 30.04 in    
Wind  
Wind Speed 3 mph ()    
Max Wind Speed 14 mph    
Max Gust Speed -    
Visibility 6.2 miles    
Events Rain , Thunderstorm    
Averages and records for this station are not official NWS values.
T = Trace of Precipitation, MM = Missing Value Source: Averaged Metar Reports

Daily Weather History Graph

Daily Weather History Graph

Search for Another Location

Airport or City:

Trip Planner

Search our weather history database for the weather conditions in past years. The results will help you decide how hot, cold, wet, or windy it might be!

Date:

Astronomy

Oct. 04, 2012 Rise Set
Actual Time 6:39 AM CDT 6:32 PM CDT
Civil Twilight 6:17 AM CDT 6:54 PM CDT
Nautical Twilight 5:51 AM CDT 7:20 PM CDT
Astronomical Twilight 5:26 AM CDT 7:45 PM CDT
Moon 9:42 PM CDT (10/4) 10:22 AM CDT (10/4)
Length of Visible Light 12h 37m
Length of Day
11h 52m
Waning Gibbous, 82% of the Moon is Illuminated
Oct 4
Waning Gibbous
Oct 8
Last Quarter
Oct 15
New
Oct 21
First Quarter
Oct 29
Full

Hourly Weather History & Observations

Time (CDT) Temp. Dew Point Humidity Pressure Visibility Wind Dir Wind Speed Gust Speed Precip Events Conditions
12:50 AM 71.6 °F 71.6 °F 100% 30.03 in 6.0 mi Calm Calm - N/A   Mostly Cloudy
1:40 AM 71.6 °F 71.6 °F 100% 30.07 in 6.0 mi Calm Calm - N/A   Overcast
2:47 AM 71.6 °F 71.6 °F 100% 30.06 in 5.0 mi West 6.9 mph - N/A Rain , Thunderstorm Thunderstorms and Rain
4:11 AM 71.6 °F 71.6 °F 100% 30.08 in 5.0 mi West 6.9 mph - N/A Rain Rain
4:47 AM 71.6 °F 71.6 °F 100% 30.04 in 6.0 mi West 4.6 mph - N/A   Overcast
5:48 AM 71.6 °F 71.6 °F 100% 30.05 in 5.0 mi North 5.8 mph - N/A Rain Rain
6:53 AM 71.6 °F 71.6 °F 100% 30.01 in 6.0 mi Calm Calm - N/A   Overcast
7:41 AM 71.6 °F 71.6 °F 100% 30.07 in 6.0 mi Calm Calm - N/A   Overcast
8:42 AM 73.4 °F 73.4 °F 100% 30.08 in 6.0 mi Calm Calm - N/A   Mostly Cloudy
9:45 AM 73.4 °F 73.4 °F 100% 30.15 in 3.0 mi ESE 13.8 mph - N/A Rain , Thunderstorm Thunderstorms and Rain
10:42 AM 69.8 °F 69.8 °F 100% 30.08 in 5.0 mi Calm Calm - N/A Rain , Thunderstorm Thunderstorms and Rain
11:46 AM 71.6 °F 71.6 °F 100% 30.11 in 5.0 mi Calm Calm - N/A Rain Light Rain
12:54 PM 73.4 °F 73.4 °F 100% 30.05 in 6.0 mi North 4.6 mph - N/A   Overcast
1:45 PM 75.2 °F 73.4 °F 94% 30.02 in 7.0 mi NNE 5.8 mph - N/A   Overcast
2:46 PM 78.8 °F 73.4 °F 83% 30.00 in 7.0 mi North 6.9 mph - N/A   Overcast
3:41 PM 78.8 °F 71.6 °F 78% 30.01 in 8.0 mi NE 6.9 mph - N/A   Mostly Cloudy
5:03 PM 78.8 °F 73.4 °F 83% 29.99 in 8.0 mi NE 4.6 mph - N/A   Mostly Cloudy
5:45 PM 78.8 °F 73.4 °F 83% 29.99 in 8.0 mi NE 8.1 mph - N/A   Scattered Clouds
6:41 PM 75.2 °F 73.4 °F 94% 29.98 in 7.0 mi NE 3.5 mph - N/A   Scattered Clouds
7:48 PM 73.4 °F 71.6 °F 94% 30.02 in 7.0 mi Calm Calm - N/A   Scattered Clouds
8:42 PM 73.4 °F 73.4 °F 100% 30.03 in 7.0 mi Calm Calm - N/A   Scattered Clouds
9:41 PM 73.4 °F 73.4 °F 100% 30.07 in 7.0 mi Calm Calm - N/A   Scattered Clouds
10:40 PM 73.4 °F 73.4 °F 100% 30.05 in 7.0 mi Calm Calm - N/A   Scattered Clouds
11:41 PM 75.2 °F 75.2 °F 100% 30.04 in 7.0 mi NNW 5.8 mph - N/A   Mostly Cloudy